| time (UTC) | temp C | wind direction | speed KPH | gust KPH | rain 1hr cm | rain 24hr cm | rain mn cm | humidity % | barometer mb |
| 20260506015021 | 18 | 189 | 0.0 | 6.4 | 0.00 | 0.00 | 0.00 | 80 | 1018.7 |
| 20260506014552 | 18 | 189 | 0.0 | 3.2 | 0.00 | 0.00 | 0.00 | 80 | 1018.8 |
| 20260506014016 | 18 | 187 | 0.0 | 8.0 | 0.00 | 0.00 | 0.00 | 80 | 1018.8 |
| 20260506013516 | 18 | 191 | 1.6 | 8.0 | 0.00 | 0.00 | 0.00 | 80 | 1018.7 |
| 20260506013054 | 18 | 191 | 1.6 | 8.0 | 0.00 | 0.00 | 0.00 | 80 | 1018.8 |
| 20260506012519 | 18 | 189 | 1.6 | 4.8 | 0.00 | 0.00 | 0.00 | 79 | 1018.9 |
| 20260506012021 | 18 | 189 | 0.0 | 4.8 | 0.00 | 0.00 | 0.00 | 79 | 1018.8 |
| 20260506011548 | 18 | 189 | 1.6 | 4.8 | 0.00 | 0.00 | 0.00 | 79 | 1018.9 |
| 20260506011017 | 18 | 190 | 0.0 | 0.0 | 0.00 | 0.00 | 0.00 | 79 | 1018.8 |
| 20260506010519 | 18 | 191 | 0.0 | 0.0 | 0.00 | 0.00 | 0.00 | 78 | 1018.8 |
| 20260506005517 | 19 | 191 | 0.0 | 0.0 | 0.00 | 0.00 | 0.00 | 77 | 1018.7 |
| 20260506005019 | 19 | 191 | 0.0 | 4.8 | 0.00 | 0.00 | 0.00 | 77 | 1018.7 |
| 20260506004919 | 19 | 191 | 0.0 | 4.8 | 0.00 | 0.00 | 0.00 | 77 | 1018.7 |
| 20260506004019 | 19 | 191 | 1.6 | 4.8 | 0.00 | 0.00 | 0.00 | 77 | 1018.6 |
| 20260506003519 | 19 | 193 | 0.0 | 1.6 | 0.00 | 0.00 | 0.00 | 76 | 1018.5 |
| 20260506003102 | 20 | 193 | 0.0 | 4.8 | 0.00 | 0.00 | 0.00 | 76 | 1018.5 |
| 20260506002515 | 20 | 193 | 1.6 | 6.4 | 0.00 | 0.00 | 0.00 | 76 | 1018.5 |
| 20260506002019 | 20 | 191 | 1.6 | 6.4 | 0.00 | 0.00 | 0.00 | 75 | 1018.5 |
| 20260506001609 | 20 | 193 | 1.6 | 6.4 | 0.00 | 0.00 | 0.00 | 75 | 1018.4 |
| 20260506001016 | 20 | 202 | 1.6 | 8.0 | 0.00 | 0.00 | 0.00 | 75 | 1018.3 |
| 20260506000519 | 20 | 197 | 1.6 | 8.0 | 0.00 | 0.00 | 0.00 | 74 | 1018.3 |
| 20260506000109 | 20 | 201 | 1.6 | 9.7 | 0.00 | 0.00 | 0.00 | 73 | 1018.4 |
| 20260505235518 | 20 | 208 | 4.8 | 12.9 | 0.00 | 0.00 | 0.00 | 73 | 1018.4 |
| 20260505235015 | 20 | 192 | 3.2 | 12.9 | 0.00 | 0.00 | 0.00 | 73 | 1018.6 |
| 20260505234611 | 21 | 218 | 3.2 | 12.9 | 0.00 | 0.00 | 0.00 | 72 | 1018.5 |
| 20260505234017 | 21 | 211 | 4.8 | 12.9 | 0.00 | 0.00 | 0.00 | 72 | 1018.6 |
| 20260505233516 | 21 | 178 | 3.2 | 19.3 | 0.00 | 0.00 | 0.00 | 72 | 1018.5 |
| 20260505233100 | 21 | 172 | 4.8 | 19.3 | 0.00 | 0.00 | 0.00 | 71 | 1018.6 |
| 20260505232516 | 21 | 148 | 4.8 | 14.5 | 0.00 | 0.00 | 0.00 | 71 | 1018.6 |
| 20260505232015 | 21 | 189 | 6.4 | 17.7 | 0.00 | 0.00 | 0.00 | 70 | 1018.5 |
| 20260505231557 | 21 | 211 | 8.0 | 17.7 | 0.00 | 0.00 | 0.00 | 70 | 1018.5 |
| 20260505231016 | 21 | 185 | 6.4 | 16.1 | 0.00 | 0.00 | 0.00 | 69 | 1018.5 |
| 20260505230518 | 21 | 230 | 6.4 | 16.1 | 0.00 | 0.00 | 0.00 | 69 | 1018.6 |
| 20260505230107 | 21 | 172 | 6.4 | 16.1 | 0.00 | 0.00 | 0.00 | 68 | 1018.6 |
| 20260505225516 | 21 | 202 | 9.7 | 19.3 | 0.00 | 0.00 | 0.00 | 67 | 1018.7 |
| 20260505225017 | 21 | 225 | 8.0 | 25.7 | 0.00 | 0.00 | 0.00 | 67 | 1018.8 |
| 20260505224606 | 21 | 219 | 9.7 | 25.7 | 0.00 | 0.00 | 0.00 | 67 | 1018.8 |
| 20260505224018 | 21 | 167 | 9.7 | 24.1 | 0.00 | 0.00 | 0.00 | 67 | 1018.9 |
| 20260505223526 | 21 | 165 | 6.4 | 19.3 | 0.00 | 0.00 | 0.00 | 67 | 1019.1 |
| 20260505223058 | 21 | 200 | 9.7 | 19.3 | 0.00 | 0.00 | 0.00 | 68 | 1018.9 |
| 20260505222518 | 21 | 250 | 6.4 | 17.7 | 0.00 | 0.00 | 0.00 | 68 | 1018.9 |
| 20260505222022 | 22 | 170 | 8.0 | 16.1 | 0.00 | 0.00 | 0.00 | 68 | 1018.9 |
| 20260505221558 | 22 | 191 | 9.7 | 22.5 | 0.00 | 0.00 | 0.00 | 68 | 1018.9 |
| 20260505221022 | 22 | 181 | 6.4 | 27.4 | 0.00 | 0.00 | 0.00 | 68 | 1018.8 |
| 20260505220518 | 22 | 158 | 9.7 | 24.1 | 0.00 | 0.00 | 0.00 | 68 | 1018.7 |
| 20260505220106 | 22 | 194 | 9.7 | 24.1 | 0.00 | 0.00 | 0.00 | 68 | 1018.7 |
| 20260505215516 | 21 | 157 | 14.5 | 29.0 | 0.00 | 0.00 | 0.00 | 67 | 1018.8 |
| 20260505215018 | 22 | 204 | 11.3 | 25.7 | 0.00 | 0.00 | 0.00 | 67 | 1018.7 |
| 20260505214624 | 22 | 222 | 11.3 | 20.9 | 0.00 | 0.00 | 0.00 | 67 | 1018.8 |
| 20260505214021 | 22 | 211 | 8.0 | 27.4 | 0.00 | 0.00 | 0.00 | 67 | 1018.9 |
| 20260505213516 | 22 | 206 | 14.5 | 33.8 | 0.00 | 0.00 | 0.00 | 66 | 1018.8 |
| 20260505213107 | 22 | 215 | 14.5 | 25.7 | 0.00 | 0.00 | 0.00 | 67 | 1018.6 |
| 20260505212518 | 22 | 195 | 12.9 | 25.7 | 0.00 | 0.00 | 0.00 | 67 | 1018.4 |
| 20260505212015 | 22 | 225 | 14.5 | 25.7 | 0.00 | 0.00 | 0.00 | 67 | 1018.7 |
| 20260505211818 | 22 | 187 | 8.0 | 24.1 | 0.00 | 0.00 | 0.00 | 67 | 1018.7 |
| 20260505211021 | 22 | 208 | 9.7 | 29.0 | 0.00 | 0.00 | 0.00 | 67 | 1018.7 |
| 20260505210516 | 22 | 197 | 9.7 | 29.0 | 0.00 | 0.00 | 0.00 | 67 | 1018.8 |
| 20260505210103 | 22 | 187 | 6.4 | 25.7 | 0.00 | 0.00 | 0.00 | 68 | 1018.7 |
| 20260505205516 | 22 | 154 | 14.5 | 25.7 | 0.00 | 0.00 | 0.00 | 67 | 1018.8 |
| 20260505205018 | 23 | 179 | 12.9 | 27.4 | 0.00 | 0.00 | 0.00 | 66 | 1018.9 |
| 20260505204556 | 23 | 180 | 8.0 | 19.3 | 0.00 | 0.00 | 0.00 | 66 | 1018.7 |
| 20260505204022 | 23 | 221 | 8.0 | 22.5 | 0.00 | 0.00 | 0.00 | 67 | 1018.7 |
| 20260505203517 | 23 | 198 | 4.8 | 22.5 | 0.00 | 0.00 | 0.00 | 68 | 1018.7 |
| 20260505203053 | 23 | 166 | 8.0 | 20.9 | 0.00 | 0.00 | 0.00 | 67 | 1018.7 |
| 20260505202552 | 23 | 204 | 12.9 | 20.9 | 0.00 | 0.00 | 0.00 | 66 | 1018.8 |
| 20260505202017 | 23 | 124 | 9.7 | 29.0 | 0.00 | 0.00 | 0.00 | 66 | 1019.0 |
| 20260505201550 | 23 | 210 | 12.9 | 27.4 | 0.00 | 0.00 | 0.00 | 65 | 1019.1 |
| 20260505201013 | 23 | 161 | 12.9 | 27.4 | 0.00 | 0.00 | 0.00 | 66 | 1019.1 |
| 20260505200514 | 23 | 217 | 8.0 | 30.6 | 0.00 | 0.00 | 0.00 | 67 | 1019.3 |
| 20260505195514 | 23 | 186 | 12.9 | 27.4 | 0.00 | 0.00 | 0.00 | 65 | 1019.4 |
| 20260505195015 | 23 | 176 | 14.5 | 30.6 | 0.00 | 0.00 | 0.00 | 64 | 1019.5 |
| 20260505194602 | 23 | 147 | 16.1 | 30.6 | 0.00 | 0.00 | 0.00 | 64 | 1019.2 |
| 20260505194018 | 23 | 185 | 9.7 | 27.4 | 0.00 | 0.00 | 0.00 | 66 | 1019.6 |
| 20260505193516 | 23 | 164 | 12.9 | 24.1 | 0.00 | 0.00 | 0.00 | 65 | 1019.5 |
| 20260505193103 | 23 | 134 | 9.7 | 19.3 | 0.00 | 0.00 | 0.00 | 66 | 1019.6 |
| 20260505192516 | 23 | 204 | 9.7 | 25.7 | 0.00 | 0.00 | 0.00 | 67 | 1019.5 |
| 20260505192019 | 23 | 220 | 12.9 | 25.7 | 0.00 | 0.00 | 0.00 | 66 | 1019.6 |
| 20260505191556 | 23 | 141 | 14.5 | 25.7 | 0.00 | 0.00 | 0.00 | 64 | 1019.7 |
| 20260505191013 | 24 | 123 | 9.7 | 22.5 | 0.00 | 0.00 | 0.00 | 64 | 1019.7 |
| 20260505190513 | 23 | 186 | 11.3 | 24.1 | 0.00 | 0.00 | 0.00 | 67 | 1019.6 |
| 20260505190104 | 23 | 197 | 11.3 | 29.0 | 0.00 | 0.00 | 0.00 | 67 | 1019.7 |
| 20260505185515 | 23 | 181 | 14.5 | 29.0 | 0.00 | 0.00 | 0.00 | 67 | 1019.6 |
| 20260505185018 | 23 | 176 | 12.9 | 29.0 | 0.00 | 0.00 | 0.00 | 66 | 1019.8 |
| 20260505184600 | 23 | 236 | 11.3 | 30.6 | 0.00 | 0.00 | 0.00 | 66 | 1020.1 |
| 20260505184015 | 24 | 166 | 12.9 | 29.0 | 0.00 | 0.00 | 0.00 | 65 | 1020.2 |
| 20260505183517 | 25 | 177 | 9.7 | 25.7 | 0.00 | 0.00 | 0.00 | 63 | 1020.1 |
| 20260505183103 | 25 | 162 | 8.0 | 19.3 | 0.00 | 0.00 | 0.00 | 62 | 1020.3 |
| 20260505182522 | 25 | 206 | 9.7 | 19.3 | 0.00 | 0.00 | 0.00 | 62 | 1020.1 |
| 20260505182016 | 25 | 218 | 11.3 | 20.9 | 0.00 | 0.00 | 0.00 | 61 | 1020.3 |
| 20260505181609 | 25 | 162 | 8.0 | 20.9 | 0.00 | 0.00 | 0.00 | 62 | 1020.6 |
| 20260505181015 | 25 | 159 | 11.3 | 19.3 | 0.00 | 0.00 | 0.00 | 60 | 1020.7 |
| 20260505180520 | 25 | 226 | 8.0 | 19.3 | 0.00 | 0.00 | 0.00 | 61 | 1020.6 |
| 20260505180112 | 25 | 213 | 9.7 | 24.1 | 0.00 | 0.00 | 0.00 | 60 | 1020.6 |
| 20260505175519 | 25 | 210 | 9.7 | 24.1 | 0.00 | 0.00 | 0.00 | 59 | 1020.6 |
| 20260505175018 | 25 | 168 | 12.9 | 20.9 | 0.00 | 0.00 | 0.00 | 57 | 1020.5 |
| 20260505174605 | 25 | 174 | 9.7 | 22.5 | 0.00 | 0.00 | 0.00 | 58 | 1020.4 |
| 20260505174015 | 25 | 141 | 12.9 | 22.5 | 0.00 | 0.00 | 0.00 | 58 | 1020.6 |
| 20260505173519 | 25 | 197 | 9.7 | 22.5 | 0.00 | 0.00 | 0.00 | 58 | 1020.6 |
| 20260505173051 | 25 | 182 | 12.9 | 27.4 | 0.00 | 0.00 | 0.00 | 57 | 1020.7 |
| 20260505172517 | 25 | 187 | 11.3 | 27.4 | 0.00 | 0.00 | 0.00 | 57 | 1020.7 |
| 20260505172015 | 25 | 205 | 9.7 | 25.7 | 0.00 | 0.00 | 0.00 | 58 | 1020.7 |
| 20260505171600 | 25 | 185 | 11.3 | 25.7 | 0.00 | 0.00 | 0.00 | 57 | 1020.7 |
| 20260505171017 | 25 | 173 | 8.0 | 24.1 | 0.00 | 0.00 | 0.00 | 58 | 1020.8 |
| 20260505170515 | 24 | 189 | 14.5 | 20.9 | 0.00 | 0.00 | 0.00 | 59 | 1020.8 |
| 20260505170057 | 25 | 185 | 4.8 | 25.7 | 0.00 | 0.00 | 0.00 | 58 | 1020.6 |
| 20260505165518 | 24 | 206 | 9.7 | 25.7 | 0.00 | 0.00 | 0.00 | 60 | 1020.6 |
| 20260505165017 | 23 | 196 | 14.5 | 22.5 | 0.00 | 0.00 | 0.00 | 60 | 1020.6 |
| 20260505164555 | 23 | 202 | 14.5 | 27.4 | 0.00 | 0.00 | 0.00 | 62 | 1020.7 |
| 20260505164015 | 23 | 181 | 12.9 | 27.4 | 0.00 | 0.00 | 0.00 | 61 | 1020.7 |
| 20260505163517 | 24 | 195 | 12.9 | 27.4 | 0.00 | 0.00 | 0.00 | 61 | 1020.8 |
| 20260505163105 | 24 | 113 | 14.5 | 25.7 | 0.00 | 0.00 | 0.00 | 59 | 1020.8 |
| 20260505162518 | 24 | 169 | 11.3 | 25.7 | 0.00 | 0.00 | 0.00 | 61 | 1020.8 |
| 20260505162016 | 24 | 195 | 11.3 | 27.4 | 0.00 | 0.00 | 0.00 | 61 | 1020.9 |
| 20260505161614 | 24 | 210 | 9.7 | 22.5 | 0.00 | 0.00 | 0.00 | 60 | 1020.7 |
| 20260505161019 | 25 | 128 | 8.0 | 22.5 | 0.00 | 0.00 | 0.00 | 60 | 1020.6 |
| 20260505160519 | 24 | 212 | 12.9 | 22.5 | 0.00 | 0.00 | 0.00 | 61 | 1020.5 |
| 20260505160104 | 24 | 130 | 12.9 | 25.7 | 0.00 | 0.00 | 0.00 | 60 | 1020.8 |
| 20260505153058 | 24 | 216 | 9.7 | 22.5 | 0.00 | 0.00 | 0.00 | 59 | 1020.5 |
| 20260505152519 | 25 | 208 | 6.4 | 19.3 | 0.00 | 0.00 | 0.00 | 62 | 1020.6 |
| 20260505152015 | 23 | 170 | 11.3 | 29.0 | 0.00 | 0.00 | 0.00 | 63 | 1020.7 |
| 20260505151600 | 23 | 198 | 12.9 | 20.9 | 0.00 | 0.00 | 0.00 | 64 | 1020.6 |
| 20260505151018 | 25 | 171 | 8.0 | 19.3 | 0.00 | 0.00 | 0.00 | 63 | 1020.6 |
| 20260505150531 | 24 | 139 | 6.4 | 20.9 | 0.00 | 0.00 | 0.00 | 67 | 1020.6 |
| 20260505140516 | 25 | 241 | 3.2 | 19.3 | 0.00 | 0.00 | 0.00 | 59 | 1020.1 |
| 20260505125015 | 22 | 189 | 3.2 | 12.9 | 0.00 | 0.00 | 0.00 | 70 | 1019.8 |
| 20260505124539 | 22 | 273 | 4.8 | 9.7 | 0.00 | 0.00 | 0.00 | 70 | 1019.7 |
| 20260505124016 | 21 | 228 | 4.8 | 8.0 | 0.00 | 0.00 | 0.00 | 73 | 1019.7 |
| 20260505123513 | 21 | 266 | 3.2 | 8.0 | 0.00 | 0.00 | 0.00 | 75 | 1019.7 |
| 20260505123044 | 21 | 275 | 1.6 | 8.0 | 0.00 | 0.00 | 0.00 | 77 | 1019.7 |
| 20260505122513 | 21 | 277 | 3.2 | 8.0 | 0.00 | 0.00 | 0.00 | 79 | 1019.7 |
| 20260505122017 | 20 | 233 | 1.6 | 8.0 | 0.00 | 0.00 | 0.00 | 82 | 1019.6 |
| 20260505121546 | 20 | 236 | 4.8 | 8.0 | 0.00 | 0.00 | 0.00 | 86 | 1019.6 |
| 20260505121019 | 18 | 248 | 1.6 | 4.8 | 0.00 | 0.00 | 0.00 | 90 | 1019.6 |
| 20260505120515 | 18 | 249 | 0.0 | 4.8 | 0.00 | 0.00 | 0.00 | 92 | 1019.6 |
| 20260505120046 | 17 | 249 | 0.0 | 0.0 | 0.00 | 0.00 | 0.00 | 93 | 1019.6 |
| 20260505115515 | 16 | 247 | 0.0 | 0.0 | 0.00 | 0.00 | 0.00 | 93 | 1019.6 |
| 20260505115015 | 16 | 247 | 0.0 | 0.0 | 0.00 | 0.00 | 0.00 | 94 | 1019.5 |
| 20260505114552 | 15 | 247 | 0.0 | 0.0 | 0.00 | 0.00 | 0.00 | 94 | 1019.5 |
| 20260505114018 | 15 | 247 | 0.0 | 0.0 | 0.00 | 0.00 | 0.00 | 94 | 1019.8 |
| 20260505113516 | 14 | 247 | 0.0 | 0.0 | 0.00 | 0.00 | 0.00 | 94 | 1019.7 |
| 20260505113106 | 13 | 247 | 0.0 | 0.0 | 0.00 | 0.00 | 0.00 | 94 | 1019.6 |
| 20260505112514 | 13 | 247 | 0.0 | 0.0 | 0.00 | 0.00 | 0.00 | 94 | 1019.6 |
| 20260505112015 | 13 | 247 | 0.0 | 0.0 | 0.00 | 0.00 | 0.00 | 94 | 1019.3 |
| 20260505111542 | 13 | 247 | 0.0 | 0.0 | 0.00 | 0.00 | 0.00 | 94 | 1019.5 |
| 20260505111017 | 13 | 247 | 0.0 | 0.0 | 0.00 | 0.00 | 0.00 | 94 | 1019.4 |
| 20260505110529 | 12 | 247 | 0.0 | 0.0 | 0.00 | 0.00 | 0.00 | 94 | 1019.3 |
| 20260505102016 | 12 | 247 | 0.0 | 0.0 | 0.00 | 0.00 | 0.00 | 93 | 1018.8 |
| 20260505101554 | 12 | 247 | 0.0 | 0.0 | 0.00 | 0.00 | 0.00 | 93 | 1018.8 |
| 20260505101013 | 12 | 247 | 0.0 | 0.0 | 0.00 | 0.00 | 0.00 | 93 | 1018.6 |
| 20260505100518 | 12 | 247 | 0.0 | 0.0 | 0.00 | 0.00 | 0.00 | 93 | 1018.5 |
| 20260505100053 | 12 | 247 | 0.0 | 0.0 | 0.00 | 0.00 | 0.00 | 93 | 1018.6 |
| 20260505095517 | 12 | 247 | 0.0 | 0.0 | 0.00 | 0.00 | 0.00 | 93 | 1018.5 |
| 20260505095016 | 12 | 247 | 0.0 | 0.0 | 0.00 | 0.00 | 0.00 | 93 | 1018.6 |
| 20260505094557 | 12 | 247 | 0.0 | 0.0 | 0.00 | 0.00 | 0.00 | 93 | 1018.5 |
| 20260505094014 | 12 | 247 | 0.0 | 0.0 | 0.00 | 0.00 | 0.00 | 93 | 1018.2 |
| 20260505093518 | 12 | 247 | 0.0 | 0.0 | 0.00 | 0.00 | 0.00 | 93 | 1018.4 |
| 20260505093051 | 12 | 247 | 0.0 | 0.0 | 0.00 | 0.00 | 0.00 | 92 | 1018.1 |
| 20260505092515 | 12 | 247 | 0.0 | 0.0 | 0.00 | 0.00 | 0.00 | 92 | 1018.0 |
| 20260505092016 | 12 | 247 | 0.0 | 0.0 | 0.00 | 0.00 | 0.00 | 92 | 1018.0 |
| 20260505091608 | 12 | 247 | 0.0 | 0.0 | 0.00 | 0.00 | 0.00 | 92 | 1017.9 |
| 20260505091019 | 12 | 247 | 0.0 | 0.0 | 0.00 | 0.00 | 0.00 | 92 | 1017.8 |
| 20260505090517 | 12 | 247 | 0.0 | 0.0 | 0.00 | 0.00 | 0.00 | 92 | 1017.6 |
| 20260505090100 | 12 | 247 | 0.0 | 0.0 | 0.00 | 0.00 | 0.00 | 92 | 1017.7 |
| 20260505085516 | 12 | 247 | 0.0 | 0.0 | 0.00 | 0.00 | 0.00 | 92 | 1017.7 |
| 20260505085017 | 12 | 247 | 0.0 | 0.0 | 0.00 | 0.00 | 0.00 | 92 | 1017.7 |
| 20260505084555 | 12 | 247 | 0.0 | 0.0 | 0.00 | 0.00 | 0.00 | 92 | 1017.8 |
| 20260505084019 | 12 | 247 | 0.0 | 0.0 | 0.00 | 0.00 | 0.00 | 92 | 1017.6 |
| 20260505083515 | 12 | 247 | 0.0 | 0.0 | 0.00 | 0.00 | 0.00 | 92 | 1017.8 |
| 20260505083051 | 12 | 247 | 0.0 | 0.0 | 0.00 | 0.00 | 0.00 | 92 | 1017.7 |
| 20260505082516 | 12 | 247 | 0.0 | 0.0 | 0.00 | 0.00 | 0.00 | 92 | 1017.8 |
| 20260505082015 | 12 | 247 | 0.0 | 0.0 | 0.00 | 0.00 | 0.00 | 91 | 1017.7 |
| 20260505081559 | 12 | 247 | 0.0 | 0.0 | 0.00 | 0.00 | 0.00 | 91 | 1017.7 |
| 20260505081016 | 12 | 247 | 0.0 | 0.0 | 0.00 | 0.00 | 0.00 | 91 | 1017.8 |
| 20260505080515 | 12 | 247 | 0.0 | 0.0 | 0.00 | 0.00 | 0.00 | 91 | 1017.8 |
| 20260505080105 | 12 | 247 | 0.0 | 0.0 | 0.00 | 0.00 | 0.00 | 91 | 1017.8 |
| 20260505075515 | 12 | 247 | 0.0 | 0.0 | 0.00 | 0.00 | 0.00 | 91 | 1017.7 |
| 20260505075019 | 12 | 247 | 0.0 | 0.0 | 0.00 | 0.00 | 0.00 | 91 | 1017.6 |
| 20260505074559 | 12 | 247 | 0.0 | 0.0 | 0.00 | 0.00 | 0.00 | 91 | 1017.7 |
| 20260505074016 | 12 | 247 | 0.0 | 0.0 | 0.00 | 0.00 | 0.00 | 91 | 1017.5 |
| 20260505073517 | 12 | 247 | 0.0 | 0.0 | 0.00 | 0.00 | 0.00 | 91 | 1017.5 |
| 20260505073057 | 12 | 247 | 0.0 | 0.0 | 0.00 | 0.00 | 0.00 | 90 | 1017.6 |
| 20260505072521 | 12 | 247 | 0.0 | 0.0 | 0.00 | 0.00 | 0.00 | 90 | 1017.6 |
| 20260505072015 | 13 | 247 | 0.0 | 0.0 | 0.00 | 0.00 | 0.00 | 90 | 1017.6 |
| 20260505071558 | 13 | 247 | 0.0 | 0.0 | 0.00 | 0.00 | 0.00 | 90 | 1017.8 |
| 20260505071016 | 13 | 247 | 0.0 | 0.0 | 0.00 | 0.00 | 0.00 | 89 | 1017.3 |
| 20260505070519 | 13 | 247 | 0.0 | 0.0 | 0.00 | 0.00 | 0.00 | 89 | 1017.6 |
| 20260505070104 | 13 | 247 | 0.0 | 0.0 | 0.00 | 0.00 | 0.00 | 89 | 1017.6 |
| 20260505065518 | 13 | 247 | 0.0 | 0.0 | 0.00 | 0.00 | 0.00 | 89 | 1017.5 |
| 20260505065015 | 13 | 247 | 0.0 | 0.0 | 0.00 | 0.00 | 0.00 | 88 | 1017.8 |
| 20260505064820 | 13 | 247 | 0.0 | 0.0 | 0.00 | 0.00 | 0.00 | 88 | 1017.8 |
| 20260505064018 | 13 | 247 | 0.0 | 3.2 | 0.00 | 0.00 | 0.00 | 88 | 1017.7 |
| 20260505063518 | 13 | 247 | 0.0 | 4.8 | 0.00 | 0.00 | 0.00 | 88 | 1017.8 |
| 20260505063138 | 13 | 247 | 0.0 | 4.8 | 0.00 | 0.00 | 0.00 | 88 | 1017.8 |
| 20260505062521 | 13 | 245 | 0.0 | 4.8 | 0.00 | 0.00 | 0.00 | 88 | 1017.9 |
| 20260505062015 | 13 | 244 | 0.0 | 4.8 | 0.00 | 0.00 | 0.00 | 87 | 1018.0 |
| 20260505061640 | 13 | 244 | 0.0 | 3.2 | 0.00 | 0.00 | 0.00 | 87 | 1018.1 |
| 20260505061016 | 13 | 245 | 0.0 | 0.0 | 0.00 | 0.00 | 0.00 | 87 | 1017.8 |
| 20260505060521 | 13 | 245 | 0.0 | 0.0 | 0.00 | 0.00 | 0.00 | 87 | 1017.9 |
| 20260505060114 | 13 | 245 | 0.0 | 0.0 | 0.00 | 0.00 | 0.00 | 86 | 1018.2 |
| 20260505055522 | 14 | 245 | 0.0 | 0.0 | 0.00 | 0.00 | 0.00 | 86 | 1018.2 |
| 20260505055020 | 14 | 245 | 0.0 | 0.0 | 0.00 | 0.00 | 0.00 | 86 | 1018.2 |
| 20260505054611 | 14 | 245 | 0.0 | 3.2 | 0.00 | 0.00 | 0.00 | 85 | 1018.3 |
| 20260505054021 | 14 | 244 | 0.0 | 4.8 | 0.00 | 0.00 | 0.00 | 86 | 1018.1 |
| 20260505053517 | 15 | 244 | 0.0 | 4.8 | 0.00 | 0.00 | 0.00 | 86 | 1018.3 |
| 20260505053112 | 15 | 243 | 0.0 | 4.8 | 0.00 | 0.00 | 0.00 | 86 | 1018.6 |
| 20260505052517 | 15 | 241 | 0.0 | 3.2 | 0.00 | 0.00 | 0.00 | 86 | 1018.4 |
| 20260505052019 | 14 | 240 | 0.0 | 3.2 | 0.00 | 0.00 | 0.00 | 87 | 1018.4 |
| 20260505051615 | 14 | 240 | 0.0 | 0.0 | 0.00 | 0.00 | 0.00 | 86 | 1018.5 |
| 20260505051021 | 14 | 240 | 0.0 | 0.0 | 0.00 | 0.00 | 0.00 | 87 | 1018.6 |
| 20260505050523 | 14 | 241 | 0.0 | 0.0 | 0.00 | 0.00 | 0.00 | 87 | 1018.6 |
| 20260505050115 | 14 | 241 | 0.0 | 0.0 | 0.00 | 0.00 | 0.00 | 87 | 1018.6 |
| 20260505041548 | 14 | 241 | 0.0 | 0.0 | 0.00 | 0.00 | 0.00 | 85 | 1018.5 |
| 20260505041016 | 14 | 241 | 0.0 | 0.0 | 0.00 | 0.00 | 0.00 | 84 | 1018.7 |
| 20260505040517 | 14 | 241 | 0.0 | 0.0 | 0.00 | 0.00 | 0.00 | 84 | 1018.7 |
| 20260505040050 | 14 | 241 | 0.0 | 0.0 | 0.00 | 0.00 | 0.00 | 84 | 1018.7 |
| 20260505035530 | 15 | 241 | 0.0 | 3.2 | 0.00 | 0.00 | 0.00 | 83 | 1018.7 |
| 20260505035018 | 15 | 241 | 0.0 | 3.2 | 0.00 | 0.00 | 0.00 | 83 | 1018.8 |
| 20260505034618 | 15 | 241 | 0.0 | 3.2 | 0.00 | 0.00 | 0.00 | 83 | 1018.8 |
| 20260505034020 | 15 | 241 | 0.0 | 3.2 | 0.00 | 0.00 | 0.00 | 82 | 1018.7 |
| 20260505033523 | 15 | 241 | 0.0 | 3.2 | 0.00 | 0.00 | 0.00 | 82 | 1018.7 |
| 20260505033119 | 15 | 241 | 0.0 | 4.8 | 0.00 | 0.00 | 0.00 | 81 | 1018.9 |
| 20260505032521 | 15 | 241 | 1.6 | 4.8 | 0.00 | 0.00 | 0.00 | 81 | 1018.8 |
| 20260505032020 | 15 | 242 | 0.0 | 3.2 | 0.00 | 0.00 | 0.00 | 81 | 1018.8 |
| 20260505031621 | 15 | 242 | 0.0 | 3.2 | 0.00 | 0.00 | 0.00 | 81 | 1018.8 |
| 20260505031020 | 15 | 241 | 0.0 | 0.0 | 0.00 | 0.00 | 0.00 | 81 | 1018.9 |
| 20260505030521 | 15 | 242 | 0.0 | 0.0 | 0.00 | 0.00 | 0.00 | 81 | 1018.8 |
| 20260505030132 | 15 | 244 | 0.0 | 0.0 | 0.00 | 0.00 | 0.00 | 80 | 1018.9 |
| 20260505025521 | 15 | 243 | 0.0 | 0.0 | 0.00 | 0.00 | 0.00 | 80 | 1018.9 |
| 20260505025020 | 15 | 242 | 0.0 | 0.0 | 0.00 | 0.00 | 0.00 | 80 | 1018.9 |
| 20260505024630 | 15 | 242 | 0.0 | 0.0 | 0.00 | 0.00 | 0.00 | 80 | 1018.9 |
| 20260505024020 | 15 | 242 | 0.0 | 0.0 | 0.00 | 0.00 | 0.00 | 79 | 1018.8 |
| 20260505023518 | 15 | 242 | 0.0 | 0.0 | 0.00 | 0.00 | 0.00 | 78 | 1018.8 |
| 20260505023117 | 16 | 242 | 0.0 | 0.0 | 0.00 | 0.00 | 0.00 | 78 | 1018.8 |
| 20260505022520 | 16 | 242 | 0.0 | 0.0 | 0.00 | 0.00 | 0.00 | 77 | 1018.8 |
| 20260505022020 | 16 | 242 | 0.0 | 1.6 | 0.00 | 0.00 | 0.00 | 77 | 1018.9 |
| 20260505021619 | 16 | 244 | 0.0 | 1.6 | 0.00 | 0.00 | 0.00 | 76 | 1018.9 |
| 20260505021020 | 16 | 241 | 0.0 | 4.8 | 0.00 | 0.00 | 0.00 | 76 | 1018.9 |
| 20260505020521 | 16 | 241 | 1.6 | 4.8 | 0.00 | 0.00 | 0.00 | 76 | 1018.7 |
| 20260505020121 | 16 | 242 | 0.0 | 1.6 | 0.00 | 0.00 | 0.00 | 75 | 1018.8 |
| 20260505015521 | 16 | 242 | 0.0 | 4.8 | 0.00 | 0.00 | 0.00 | 75 | 1018.7 |